Vertical_Velocity
2 1 -0 -2 5 5 6 3 6 6 7 5 5 0 1 1 0 -2 -0 20 5 4 1 -4 1 -1 1 -0 0 5 -13 -4 4 5 16 6 1 -1 -0 -0 1 -3 1 3 1
-1 2 2 5 0 7 4 6 3 3 -0 12 -3 6 6 -2 0 -4 16 8 -1 4 -1 -2 3 2 -3 0 -2 -8 -6 8 4 10 5 -2 -0 0 -2 1 -1 1 0 1 2
-2 0 -0 3 3 2 8 10 9 10 8 16 11 7 4 2 -9 14 10 3 -3 3 3 3 -4 -2 0 3 2 -6 -2 2 5 10 -0 -4 -1 -1 -0 0 -2 0 3 0 1
2 1 -0 -2 -1 4 2 4 1 -0 -2 6 11 4 4 6 -14 12 -6 4 2 5 1 -1 -6 -9 -5 -5 -1 -4 2 6 9 2 -1 -4 -1 -1 -1 1 -3 2 1 1 3
0 -4 -3 -1 3 0 5 0 -2 -1 -1 4 8 1 7 -2 8 17 3 6 -4 -1 1 2 1 -3 -3 -1 1 -1 5 6 2 -2 -0 -4 -2 -3 4 -5 -0 -1 3 0 2
-3 -3 -5 1 -2 0 -0 -1 2 0 0 -0 1 5 2 -8 9 4 1 2 1 6 3 1 -2 3 -1 -3 2 5 4 7 -6 -2 -4 -4 -2 -12 10 -0 -2 0 1 1 2
-2 -1 -2 -0 -2 -3 0 -0 -0 1 1 -1 4 0 -5 -5 16 -2 9 -3 2 10 -0 6 5 1 9 -1 2 2 -1 3 -2 -0 -5 -4 -7 -2 5 -7 2 -1 -2 -1 2
-3 -3 -0 -3 -2 -2 3 -0 -2 1 4 4 -0 3 -7 12 -2 5 -6 -6 1 5 -4 -0 7 -2 4 -6 -3 -2 1 -1 -0 0 3 -5 5 -0 8 2 2 1 -0 -2 2
-1 3 1 0 -1 -3 2 5 0 -1 7 7 1 -4 -1 -1 8 4 10 4 4 2 5 6 2 -4 -0 -4 -4 -10 -3 3 4 2 -1 -12 15 -5 5 4 3 -1 -0 0 0
0 5 6 2 0 -4 2 1 -1 -1 -4 4 1 6 2 -2 8 2 22 8 6 7 7 6 -1 -10 -6 -11 -8 -2 -0 7 9 1 -3 -9 6 -5 4 -0 3 4 2 -2 -1
-1 -2 -0 9 3 -2 -2 -2 -4 1 -2 -3 6 11 16 8 2 6 0 -1 1 8 -4 -4 -8 -3 17 5 -6 4 -2 -0 -2 -4 -8 -4 0 1 8 2 1 -1 -1 2 -1
-7 -4 1 0 3 -2 2 -2 0 1 -0 -1 2 7 -1 -1 -0 -1 -3 2 4 5 3 -1 0 4 5 -1 2 1 -2 -0 -1 1 -2 -9 1 14 1 1 -5 -7 -0 7 -3
-3 -4 -2 -1 -1 -3 1 -0 1 1 2 5 4 3 -3 -3 -5 -7 8 -4 47 -7 19 -0 10 3 -4 1 -2 1 4 1 1 -1 -3 -5 6 14 -4 -5 -6 -1 6 -0 -5
-2 -6 1 -3 -2 -2 -2 -0 1 -2 4 -0 6 7 9 9 16 0 10 -4 9 36 19 23 5 1 1 6 0 4 1 2 -1 -5 -1 -1 4 5 -5 -3 -5 -1 5 -5 1
-7 -5 -7 -1 -5 -5 -3 -4 -6 -1 3 16 6 -0 -1 -2 2 -6 -3 -0 1 0 10 16 17 31 1 17 -2 4 3 -1 -1 -3 -1 -1 8 -7 -5 -2 -5 -1 -1 -6 -4
-5 5 -3 -4 -2 -7 -9 -8 -3 14 -3 -4 -3 4 -5 -6 -1 -3 -5 -5 2 0 4 2 -1 -5 -3 -2 1 0 1 -0 -4 -3 2 -0 -1 3 -5 -5 -3 -4 -4 -3 -2
2 4 -13 -10 -4 -1 -8 -11 1 -6 3 2 0 -2 2 -0 -3 -0 -2 -2 -1 -1 1 -1 -4 -2 28 8 5 1 1 -0 2 -2 4 -0 -2 -0 -5 -2 -2 -3 -3 -1 -0
13 4 1 -15 -5 -8 -6 -0 -3 -3 -3 -5 -3 -3 -3 -3 -1 -2 -2 1 3 5 3 6 0 3 2 1 -1 -1 0 2 1 -2 1 -2 -4 5 -1 -5 -4 -1 -2 0 0
0 2 3 -3 -13 2 3 8 -15 1 -0 -7 -6 2 -4 1 8 -4 -1 -0 1 2 1 2 1 1 -1 -3 1 1 2 0 1 -1 1 0 -0 1 1 -4 -1 3 -1 -2 1
-3 2 5 -8 -2 -2 4 -9 2 -4 -5 -4 2 -2 1 -0 1 1 1 0 0 -0 2 1 -3 -4 -2 0 2 -2 -1 -0 2 1 1 2 -1 -0 0 0 2 -1 -2 -0 -2
-5 -4 5 1 -2 2 1 -4 -6 -2 1 -0 -2 3 1 0 2 2 -1 2 1 -1 -2 -1 -3 -2 -3 2 1 2 2 2 -1 0 0 -2 -2 -2 -1 3 2 0 2 -5 0
-3 -2 1 0 -6 -2 2 -5 -1 -4 -4 -3 -3 -3 -4 -2 -3 -0 2 -1 -1 2 -0 -1 -1 -2 -2 -2 -1 -1 0 1 -1 5 2 -1 -2 -2 -0 3 -2 -3 -2 1 -1
-1 -2 -1 1 -0 2 -0 -1 -3 -3 -2 -2 -2 -1 -1 -0 1 -1 -2 -0 -4 -4 -2 2 1 -0 1 -1 1 1 1 0 2 -2 1 -0 -2 -1 3 -3 -0 -0 -2 -2 -3
-2 -1 -2 -2 -1 1 2 0 -2 -1 -1 0 -0 -1 -1 -1 -1 1 0 -1 -1 -3 -1 -2 -2 0 0 -0 0 -0 -1 -0 3 3 -1 -2 -0 3 -2 -2 -1 -1 -2 -1 -2
-1 -1 -3 0 1 1 -0 3 4 -0 -1 0 1 1 1 -1 -1 -1 -0 -0 -0 -0 -0 -0 1 -2 -1 0 0 0 1 1 1 -0 0 -1 -0 -3 -0 0 -1 -1 -4 -1 -2
2 -2 -1 -1 -2 -0 0 4 2 3 1 -1 -1 0 -2 -2 -0 -2 -2 -4 -0 -1 -1 -1 -2 -1 1 -0 1 1 1 -0 -0 1 -2 0 -2 -1 -1 -1 -1 -0 -0 -4 -2
-0 1 -1 -1 -2 -2 -1 0 1 3 3 3 -0 -1 1 1 1 1 0 3 1 -1 0 -0 0 1 3 3 2 0 -1 -0 -1 -1 -0 -1 -1 -0 -0 0 -0 -4 -3 -1 -2
Height
5670 5662 5654 5646 5640 5634 5628 5624 5624 5626 5631 5632 5637 5642 5649 5654 5659 5666 5680 5692 5690 5697 5707 5715 5725 5733 5742 5749 5756 5763 5769 5778 5791 5798 5805 5807 5809 5811 5817 5822 5825 5829 5833 5836 5837
5654 5644 5633 5622 5612 5602 5596 5594 5594 5599 5605 5613 5616 5625 5632 5639 5648 5659 5668 5670 5676 5688 5699 5708 5716 5725 5733 5741 5748 5754 5763 5776 5787 5790 5797 5801 5803 5805 5811 5816 5820 5823 5826 5830 5832
5636 5622 5609 5594 5579 5569 5564 5562 5562 5567 5573 5584 5591 5604 5614 5625 5636 5651 5653 5658 5665 5679 5690 5699 5705 5714 5725 5735 5743 5750 5760 5768 5777 5782 5789 5795 5797 5799 5804 5810 5814 5816 5820 5824 5827
5616 5600 5584 5568 5553 5543 5540 5539 5539 5543 5551 5558 5569 5584 5597 5609 5623 5636 5641 5648 5655 5670 5680 5690 5699 5708 5718 5728 5736 5744 5753 5759 5768 5774 5781 5787 5790 5793 5797 5805 5807 5810 5815 5819 5822
5595 5577 5560 5543 5530 5525 5521 5519 5520 5525 5531 5537 5550 5564 5580 5595 5617 5626 5634 5642 5651 5663 5675 5686 5695 5704 5712 5722 5730 5738 5746 5753 5760 5766 5773 5780 5784 5787 5793 5796 5801 5805 5809 5813 5816
5577 5557 5540 5526 5519 5512 5506 5506 5507 5510 5514 5520 5530 5546 5563 5585 5605 5618 5626 5636 5647 5657 5667 5678 5690 5699 5706 5714 5723 5731 5737 5745 5752 5759 5766 5772 5778 5780 5789 5788 5793 5798 5803 5806 5810
5561 5542 5527 5519 5513 5506 5501 5501 5501 5502 5506 5511 5518 5531 5550 5581 5598 5610 5619 5631 5641 5651 5659 5672 5682 5691 5701 5707 5716 5723 5730 5737 5746 5752 5758 5765 5771 5777 5779 5781 5786 5791 5795 5798 5804
5548 5531 5521 5515 5510 5506 5502 5501 5500 5501 5503 5506 5512 5522 5550 5575 5592 5607 5617 5628 5637 5645 5652 5663 5674 5682 5693 5702 5710 5717 5724 5732 5741 5747 5752 5757 5766 5768 5771 5776 5780 5784 5789 5792 5796
5540 5525 5517 5512 5508 5505 5502 5500 5499 5499 5501 5504 5508 5523 5547 5570 5590 5604 5613 5622 5633 5642 5648 5658 5665 5676 5687 5696 5705 5711 5722 5729 5736 5741 5746 5751 5759 5762 5765 5770 5776 5779 5782 5785 5789
5536 5522 5513 5508 5505 5503 5501 5499 5498 5497 5499 5502 5508 5527 5548 5569 5588 5599 5609 5619 5631 5638 5643 5649 5657 5669 5682 5692 5702 5709 5717 5724 5729 5735 5740 5746 5752 5757 5760 5765 5770 5773 5775 5777 5781
5539 5519 5511 5506 5503 5501 5499 5497 5497 5496 5496 5501 5511 5529 5551 5570 5588 5600 5611 5619 5627 5634 5641 5648 5658 5670 5682 5689 5696 5704 5709 5717 5721 5728 5734 5740 5745 5753 5755 5759 5763 5765 5768 5770 5772
5542 5522 5508 5503 5501 5499 5498 5495 5494 5494 5494 5500 5515 5534 5554 5572 5589 5602 5611 5619 5627 5634 5640 5648 5657 5665 5672 5681 5689 5697 5704 5711 5717 5723 5729 5734 5740 5747 5748 5751 5753 5758 5762 5764 5765
5547 5527 5511 5503 5499 5498 5496 5494 5493 5492 5498 5511 5528 5544 5561 5579 5593 5603 5613 5619 5628 5634 5639 5647 5655 5659 5667 5676 5684 5691 5699 5705 5712 5717 5722 5728 5733 5737 5740 5742 5747 5751 5755 5756 5758
5555 5535 5517 5507 5503 5498 5496 5495 5496 5502 5514 5529 5542 5556 5570 5582 5593 5602 5609 5618 5625 5630 5638 5644 5652 5659 5665 5672 5679 5687 5694 5699 5705 5711 5716 5722 5726 5730 5731 5736 5741 5745 5747 5748 5751
5569 5545 5530 5520 5513 5506 5505 5506 5512 5521 5532 5547 5554 5565 5576 5588 5596 5604 5611 5617 5623 5628 5637 5643 5649 5654 5664 5669 5674 5682 5687 5693 5699 5704 5710 5714 5718 5723 5725 5727 5733 5737 5739 5740 5741
5583 5566 5550 5539 5530 5524 5524 5526 5529 5538 5544 5556 5565 5575 5586 5593 5601 5608 5615 5621 5624 5628 5634 5641 5647 5655 5662 5666 5671 5676 5682 5687 5693 5698 5704 5708 5712 5714 5718 5720 5724 5727 5730 5732 5732
5596 5586 5574 5562 5558 5553 5551 5551 5552 5554 5560 5568 5575 5584 5593 5600 5605 5611 5617 5621 5625 5629 5635 5641 5649 5655 5658 5664 5668 5673 5677 5682 5689 5693 5698 5701 5705 5708 5711 5714 5716 5719 5721 5723 5725
5605 5599 5593 5585 5579 5574 5572 5572 5569 5569 5573 5578 5585 5592 5598 5602 5608 5613 5618 5623 5627 5631 5636 5642 5648 5651 5656 5661 5666 5671 5675 5679 5682 5688 5693 5696 5698 5702 5704 5707 5710 5712 5714 5717 5718
5611 5607 5603 5598 5593 5592 5591 5589 5585 5586 5589 5591 5594 5600 5604 5608 5613 5616 5621 5624 5628 5633 5638 5642 5646 5651 5656 5660 5664 5668 5672 5676 5679 5684 5687 5691 5694 5697 5699 5702 5704 5707 5709 5710 5710
5617 5610 5607 5604 5601 5599 5600 5597 5596 5597 5598 5600 5604 5607 5610 5612 5615 5618 5621 5625 5628 5632 5637 5642 5646 5650 5654 5658 5662 5665 5670 5673 5676 5680 5683 5686 5689 5692 5695 5697 5699 5701 5702 5704 5705
5620 5615 5610 5606 5606 5605 5605 5603 5601 5602 5604 5607 5608 5612 5613 5615 5619 5622 5626 5628 5630 5634 5637 5641 5645 5650 5653 5656 5659 5663 5665 5668 5672 5676 5679 5683 5686 5688 5689 5692 5694 5695 5697 5697 5697
5623 5619 5614 5610 5608 5607 5606 5606 5606 5607 5608 5610 5612 5614 5615 5617 5619 5622 5626 5628 5631 5634 5637 5641 5645 5648 5651 5654 5657 5659 5662 5665 5668 5674 5676 5679 5683 5683 5685 5687 5688 5688 5688 5689 5689
5623 5621 5617 5614 5610 5609 5609 5608 5608 5609 5611 5613 5614 5615 5617 5618 5620 5622 5625 5628 5630 5632 5636 5639 5643 5646 5649 5653 5654 5656 5659 5662 5666 5670 5673 5675 5678 5679 5681 5681 5681 5682 5681 5682 5682
5623 5622 5620 5616 5614 5612 5611 5611 5611 5612 5613 5614 5616 5617 5618 5619 5620 5623 5624 5627 5629 5632 5635 5638 5641 5644 5647 5650 5652 5654 5657 5660 5664 5667 5669 5671 5673 5674 5675 5675 5676 5676 5676 5676 5674
5622 5621 5620 5618 5616 5615 5613 5613 5613 5613 5613 5614 5615 5616 5618 5619 5620 5622 5624 5626 5629 5631 5634 5637 5639 5642 5645 5648 5650 5653 5655 5658 5661 5663 5665 5667 5669 5669 5669 5670 5670 5670 5670 5669 5669
5619 5618 5618 5617 5616 5615 5615 5614 5614 5614 5614 5613 5613 5614 5616 5617 5619 5620 5623 5625 5627 5630 5632 5635 5638 5640 5643 5646 5648 5650 5653 5655 5658 5660 5661 5663 5664 5664 5666 5666 5667 5666 5665 5664 5662
5616 5616 5615 5615 5615 5614 5614 5614 5614 5614 5614 5614 5613 5613 5614 5616 5618 5620 5622 5624 5626 5628 5630 5633 5636 5639 5642 5643 5646 5649 5650 5652 5654 5655 5657 5658 5660 5661 5662 5662 5662 5661 5660 5657 5655